Wind_Speed
2 2 1 1 2 2 2 2 2 2 3 3 3 3 3 3 2 2 2 3 3 3 3 4 5 6 5 4 3 4 6 8 8 8 8 7 7 7 7 7 7 7 7
2 2 2 2 2 2 3 2 3 2 3 3 4 4 3 3 3 3 2 3 3 4 4 4 5 5 5 4 4 4 5 6 6 7 7 7 8 8 8 7 7 7 8
2 2 3 3 2 2 2 3 3 3 4 4 4 4 4 4 4 4 4 4 4 4 4 5 6 6 5 5 5 5 6 7 7 7 7 7 8 7 8 9 8 8 8
2 2 3 3 3 2 2 3 4 5 4 4 5 5 5 5 5 5 5 5 5 5 4 4 5 6 6 6 6 6 6 7 7 7 7 7 8 8 8 9 9 9 9
3 3 3 3 3 3 3 3 4 5 5 5 6 6 6 6 6 6 6 5 5 5 4 4 5 5 5 6 6 7 7 7 7 8 8 8 8 7 8 8 9 9 9
4 4 4 3 3 3 4 4 5 5 6 6 6 6 6 7 7 6 6 6 5 5 5 5 5 6 6 7 7 7 7 8 8 8 9 8 8 8 8 9 9 9 9
6 5 4 4 4 4 4 5 5 5 6 6 7 7 7 7 7 7 6 6 6 6 7 7 7 7 7 7 8 8 8 8 8 8 9 10 10 10 10 10 11 11 10
6 5 5 6 6 6 6 5 6 5 6 6 7 7 6 7 7 8 8 7 8 8 8 8 8 8 8 9 8 8 8 8 9 10 11 11 11 11 11 10 11 11 11
6 6 6 6 6 6 6 6 6 6 6 7 7 7 7 7 7 7 8 8 8 9 9 9 9 8 8 8 7 8 8 9 10 10 10 11 11 11 10 10 11 11 11
8 7 7 7 7 7 7 7 7 7 7 7 7 7 7 8 8 8 8 8 8 8 9 9 9 9 9 10 9 9 9 9 10 10 10 11 11 11 12 11 11 11 12
9 8 8 8 8 8 7 8 8 8 8 8 8 8 8 9 9 10 10 9 9 8 9 10 11 10 10 10 11 11 10 10 10 11 11 11 12 12 12 13 12 12 13
9 9 8 9 9 8 8 9 9 8 8 9 9 10 10 10 10 10 10 9 9 9 9 10 10 10 11 11 11 11 11 11 11 11 12 12 12 12 13 13 13 13 14
10 10 10 10 10 10 10 9 9 9 9 9 10 10 10 11 11 10 10 10 10 11 10 10 11 12 12 11 11 11 12 12 12 12 12 13 13 13 13 13 14 14 14
12 12 11 10 10 11 11 10 10 10 10 10 11 10 11 11 11 12 12 12 12 12 12 11 11 11 11 11 12 12 12 12 12 12 12 13 14 14 14 14 15 15 15
13 13 13 12 12 12 12 11 11 11 11 11 11 11 11 12 13 13 14 14 13 13 13 13 12 12 12 12 13 13 13 13 13 13 13 13 14 15 16 16 16 16 16
14 14 14 14 14 13 13 12 11 11 12 12 13 13 13 13 13 14 14 14 15 15 15 15 15 14 14 14 14 14 14 14 14 14 14 14 15 15 15 15 16 16 17
15 15 15 15 15 14 14 13 12 13 13 13 14 14 15 14 14 14 14 15 15 15 16 16 16 16 16 16 16 15 15 15 15 14 15 15 16 16 16 16 16 16 16
17 17 17 17 17 15 15 15 14 14 15 15 15 15 16 16 16 16 16 16 16 16 16 17 17 17 17 17 17 17 17 16 16 16 16 17 17 17 17 17 17 17 18
19 19 19 19 18 17 17 17 16 16 16 17 17 17 17 17 17 17 18 18 18 17 17 17 19 19 19 19 19 19 19 19 18 19 18 18 18 18 18 18 19 19 19
21 21 21 20 20 19 19 19 19 18 18 19 19 19 19 18 18 18 18 18 19 19 19 19 19 20 20 20 20 20 20 20 20 20 20 19 19 19 18 19 20 21 21
23 23 22 22 22 22 22 21 21 20 20 21 21 21 20 20 19 19 19 19 19 20 20 20 20 21 21 21 21 21 22 21 21 21 20 21 21 21 20 20 21 22 23
25 25 24 24 24 24 24 24 23 23 22 22 22 21 21 21 20 21 21 21 21 21 22 22 22 22 22 23 23 22 22 22 22 22 22 23 23 22 22 22 22 23 23
26 26 26 26 26 26 26 25 25 25 25 24 24 24 23 23 22 22 23 23 23 23 24 24 24 24 24 24 25 25 24 24 24 24 24 24 25 25 25 24 25 25 25
27 27 27 27 27 27 27 27 26 26 25 25 25 25 26 25 24 25 25 24 24 25 25 25 25 25 25 26 26 26 25 25 25 25 25 26 27 27 27 27 26 26 27
27 27 28 28 28 28 28 28 28 27 27 26 26 26 27 27 27 27 27 27 26 26 26 27 27 27 27 28 28 27 27 26 26 26 26 27 28 29 29 28 28 28 29
28 28 28 28 28 28 28 28 28 28 28 28 27 28 28 28 29 29 29 29 29 29 29 29 29 28 28 29 30 29 29 28 28 28 28 28 29 29 30 30 30 30 30
Wind_Direction
319 314 324 300 281 264 248 239 242 261 267 289 300 301 288 291 288 295 289 291 274 269 267 230 227 227 233 234 226 211 208 213 214 215 219 224 229 232 235 238 244 244 249
309 291 293 293 283 260 245 241 244 265 279 292 301 303 307 309 293 305 300 277 282 286 276 252 234 233 239 235 230 237 230 225 224 221 221 226 232 235 236 243 246 252 254
330 300 291 293 292 266 239 242 250 265 279 289 299 301 293 296 293 298 294 290 289 283 273 256 235 240 242 245 243 244 246 241 236 234 228 232 238 241 241 243 248 254 257
342 315 301 297 300 277 257 256 254 266 281 291 293 297 294 285 287 288 285 293 291 283 274 265 250 246 247 253 254 258 257 250 254 248 243 239 240 243 246 247 251 256 258
353 334 316 298 290 279 269 270 267 269 279 287 290 292 293 288 282 283 286 286 287 279 270 263 266 260 251 257 261 262 258 255 261 255 252 248 241 243 246 249 254 259 260
343 336 322 309 294 282 277 278 279 274 272 278 282 286 288 294 279 283 285 284 283 276 272 265 263 265 263 260 259 261 254 252 254 251 254 253 247 246 251 255 260 262 262
332 332 329 322 307 296 291 291 287 281 275 274 277 284 288 296 283 280 282 280 279 276 270 267 266 267 274 276 272 264 260 256 252 252 253 258 256 252 253 255 260 263 266
330 330 325 321 312 300 296 298 297 285 286 283 283 285 290 293 289 286 287 281 278 278 270 269 270 270 275 277 280 276 277 272 263 256 257 261 260 257 255 253 258 264 269
332 325 314 311 307 298 294 298 299 290 290 291 291 290 288 287 287 289 289 281 275 274 268 264 265 264 270 277 281 284 286 281 276 265 259 259 259 257 251 252 258 265 271
339 326 317 309 305 299 294 292 294 293 289 290 291 290 290 290 288 293 293 284 278 274 273 268 265 265 272 274 276 280 281 281 278 272 262 260 261 261 257 259 263 268 273
338 329 320 313 307 298 292 288 287 286 284 289 290 290 291 290 290 290 290 287 281 277 273 269 266 267 270 278 280 278 279 281 279 275 270 263 264 267 264 264 267 269 270
334 331 327 318 311 304 296 287 285 288 288 289 287 289 289 287 286 288 290 287 282 278 277 278 272 269 274 277 281 280 279 281 279 277 274 267 265 267 267 266 269 270 270
329 329 326 318 308 304 300 290 283 285 288 287 286 288 287 285 284 285 286 285 285 281 279 278 276 275 277 280 283 283 280 279 277 275 272 269 268 267 268 270 272 275 274
324 324 325 320 310 304 300 295 288 282 282 282 284 288 289 285 282 283 284 284 285 285 282 278 276 277 277 281 285 288 287 285 281 279 276 274 272 269 271 275 278 278 278
318 317 318 316 310 306 300 293 288 284 280 281 282 285 286 286 284 283 283 281 281 283 279 277 275 278 277 281 286 290 290 286 284 282 280 278 279 275 273 275 278 278 278
316 314 314 313 310 306 302 294 288 286 282 283 283 283 284 285 285 285 284 282 280 280 278 276 276 277 279 283 286 289 288 289 288 287 283 279 280 284 278 277 276 277 277
311 310 310 310 309 305 301 295 290 286 284 284 282 283 283 284 284 285 286 281 280 281 279 277 276 277 279 282 285 288 288 289 288 287 285 282 281 281 281 283 283 280 279
306 305 304 303 303 303 302 298 292 285 283 283 282 281 283 283 282 283 282 279 280 280 279 276 275 275 278 280 283 286 285 286 286 284 283 282 280 280 280 281 283 284 281
302 301 301 302 299 298 298 297 292 287 284 283 283 283 283 283 282 280 278 278 278 279 278 277 275 274 275 278 281 283 284 284 284 282 281 280 281 280 279 280 281 282 283
299 299 298 297 296 295 294 293 291 288 285 283 282 282 282 282 281 279 278 278 277 276 276 276 276 275 276 277 279 280 281 281 280 281 280 280 282 281 280 279 280 281 282
296 295 295 295 294 293 291 289 289 286 284 283 281 279 277 277 278 278 279 279 277 276 275 276 277 276 276 275 276 278 280 281 281 280 281 282 282 282 280 280 281 281 282
293 292 291 292 293 293 290 286 285 284 282 281 280 278 276 275 275 276 277 277 278 278 278 277 276 275 275 276 276 278 280 281 281 280 280 282 283 284 284 283 281 280 282
292 291 290 289 289 290 289 287 284 282 280 279 279 278 277 276 275 275 276 276 277 278 277 276 276 276 276 276 278 279 280 280 281 281 281 281 282 283 283 283 282 280 281
292 290 289 289 287 287 286 285 284 282 279 278 276 276 276 275 273 274 274 275 277 277 276 275 276 276 277 279 280 281 280 280 281 282 282 281 280 281 281 282 281 279 280
293 291 289 288 287 286 285 284 283 281 279 277 275 275 275 274 273 273 274 273 274 275 274 275 275 275 276 277 280 280 281 282 281 280 280 281 281 282 281 281 282 280 280
293 292 290 288 286 285 284 283 281 280 278 277 276 275 275 275 274 273 273 272 273 274 274 274 274 274 274 276 278 279 280 281 281 281 280 280 282 282 281 281 282 281 280
Height
5888 5888 5887 5887 5887 5886 5886 5886 5886 5885 5884 5883 5883 5882 5881 5881 5880 5880 5879 5879 5878 5878 5878 5878 5877 5878 5878 5878 5877 5877 5877 5878 5880 5881 5882 5883 5884 5884 5885 5886 5886 5887 5887
5888 5887 5887 5887 5886 5886 5886 5885 5885 5884 5884 5883 5882 5882 5881 5880 5880 5879 5879 5878 5878 5878 5877 5877 5877 5877 5877 5877 5877 5877 5878 5878 5879 5880 5881 5881 5882 5883 5884 5884 5885 5886 5886
5887 5887 5886 5886 5886 5885 5885 5885 5884 5884 5883 5883 5882 5881 5881 5880 5879 5879 5878 5878 5878 5877 5877 5876 5876 5876 5876 5876 5877 5877 5877 5877 5878 5878 5879 5880 5881 5881 5882 5883 5883 5884 5884
5887 5886 5886 5885 5885 5885 5884 5884 5884 5883 5882 5882 5881 5881 5880 5879 5879 5878 5878 5878 5877 5877 5876 5876 5875 5875 5875 5875 5876 5876 5875 5876 5876 5877 5877 5878 5879 5880 5880 5881 5881 5881 5881
5886 5885 5885 5884 5884 5883 5883 5883 5882 5882 5881 5881 5880 5880 5879 5878 5878 5878 5877 5877 5876 5876 5875 5875 5874 5874 5873 5874 5874 5874 5875 5875 5875 5875 5876 5876 5877 5878 5878 5879 5879 5879 5879
5886 5885 5884 5883 5883 5882 5882 5881 5881 5880 5880 5880 5879 5878 5878 5877 5877 5876 5876 5875 5875 5875 5874 5874 5874 5873 5873 5873 5873 5873 5873 5873 5873 5874 5874 5875 5875 5876 5876 5877 5877 5877 5877
5886 5885 5884 5883 5882 5881 5881 5880 5880 5879 5879 5878 5878 5877 5877 5876 5875 5875 5874 5874 5874 5874 5873 5873 5873 5872 5872 5872 5871 5871 5871 5871 5871 5872 5872 5873 5873 5873 5874 5874 5875 5875 5875
5885 5884 5883 5882 5881 5880 5880 5879 5879 5878 5878 5877 5876 5876 5875 5875 5874 5873 5873 5872 5872 5872 5872 5871 5871 5871 5871 5870 5870 5870 5870 5870 5870 5870 5870 5870 5870 5871 5871 5871 5872 5872 5872
5885 5884 5883 5881 5880 5879 5878 5878 5877 5877 5876 5876 5875 5874 5874 5873 5873 5872 5871 5871 5870 5870 5870 5870 5869 5869 5869 5869 5868 5868 5868 5868 5867 5867 5867 5867 5868 5868 5868 5869 5869 5869 5869
5885 5883 5882 5880 5879 5878 5877 5877 5876 5875 5875 5874 5873 5873 5872 5872 5871 5871 5870 5869 5868 5868 5868 5867 5867 5868 5867 5867 5866 5866 5866 5866 5865 5865 5865 5865 5865 5865 5866 5866 5866 5866 5866
5884 5882 5881 5879 5878 5877 5876 5875 5874 5873 5873 5872 5872 5871 5870 5870 5869 5869 5868 5868 5867 5866 5866 5866 5866 5866 5865 5865 5864 5864 5864 5863 5863 5863 5862 5863 5863 5863 5863 5863 5863 5863 5862
5883 5881 5879 5878 5876 5875 5874 5872 5872 5871 5871 5870 5870 5869 5869 5868 5868 5867 5866 5865 5865 5865 5864 5864 5863 5863 5863 5862 5862 5861 5861 5861 5860 5860 5860 5860 5860 5860 5860 5859 5859 5859 5859
5881 5879 5878 5876 5874 5873 5872 5870 5869 5869 5868 5868 5868 5867 5866 5866 5865 5865 5864 5864 5863 5863 5862 5862 5861 5861 5861 5860 5860 5859 5859 5858 5857 5857 5857 5857 5857 5856 5856 5856 5856 5855 5855
5879 5878 5876 5874 5872 5871 5869 5867 5866 5866 5866 5865 5865 5864 5864 5863 5862 5862 5862 5861 5861 5860 5860 5859 5859 5858 5858 5858 5857 5856 5856 5855 5854 5854 5854 5853 5853 5853 5853 5852 5852 5851 5851
5878 5876 5874 5872 5870 5868 5867 5865 5864 5863 5863 5863 5862 5861 5861 5860 5860 5859 5858 5858 5858 5857 5857 5857 5856 5855 5855 5855 5854 5853 5853 5852 5851 5851 5850 5850 5850 5849 5849 5848 5848 5847 5847
5875 5873 5871 5869 5868 5866 5864 5862 5861 5860 5860 5859 5859 5858 5857 5857 5856 5855 5855 5854 5854 5853 5853 5853 5853 5852 5852 5851 5851 5850 5849 5848 5848 5847 5847 5846 5846 5845 5845 5844 5843 5843 5842
5872 5870 5868 5866 5864 5863 5861 5859 5858 5857 5857 5856 5855 5855 5854 5853 5852 5851 5851 5850 5850 5849 5849 5849 5849 5848 5848 5847 5847 5846 5845 5844 5843 5843 5842 5842 5841 5841 5840 5840 5839 5838 5837
5869 5867 5865 5863 5861 5859 5858 5856 5855 5854 5853 5852 5851 5851 5850 5849 5848 5847 5847 5846 5845 5845 5844 5844 5844 5843 5843 5842 5842 5841 5841 5840 5839 5838 5838 5837 5836 5836 5835 5835 5834 5833 5833
5864 5862 5860 5859 5857 5855 5854 5852 5851 5849 5848 5848 5847 5846 5845 5844 5843 5843 5842 5841 5840 5840 5840 5839 5839 5838 5838 5837 5837 5836 5835 5834 5834 5833 5832 5832 5831 5830 5830 5829 5829 5828 5827
5859 5857 5855 5853 5852 5850 5849 5847 5846 5845 5843 5842 5842 5841 5840 5839 5838 5837 5837 5836 5835 5835 5834 5834 5833 5833 5832 5832 5831 5830 5829 5828 5828 5827 5826 5826 5825 5824 5824 5823 5823 5822 5821
5853 5851 5849 5847 5846 5844 5843 5841 5840 5839 5838 5837 5836 5835 5834 5834 5833 5832 5831 5831 5830 5829 5829 5828 5827 5827 5826 5826 5825 5824 5824 5823 5822 5821 5820 5820 5819 5818 5817 5817 5816 5815 5815
5846 5844 5843 5841 5839 5838 5836 5835 5833 5832 5831 5830 5829 5828 5828 5827 5827 5826 5825 5825 5824 5824 5823 5822 5821 5821 5820 5819 5819 5818 5817 5816 5816 5815 5814 5813 5812 5811 5811 5810 5809 5808 5808
5839 5837 5835 5833 5832 5830 5829 5828 5826 5825 5824 5823 5822 5821 5821 5820 5820 5819 5819 5818 5818 5817 5816 5816 5815 5814 5813 5813 5812 5811 5810 5809 5808 5808 5807 5806 5805 5804 5803 5802 5802 5801 5800
5831 5829 5827 5825 5824 5822 5821 5820 5819 5817 5816 5815 5814 5814 5813 5813 5812 5812 5811 5811 5810 5809 5809 5808 5808 5807 5806 5805 5804 5803 5802 5802 5801 5800 5799 5798 5797 5797 5796 5795 5794 5793 5793
5823 5821 5819 5817 5815 5814 5813 5811 5810 5809 5808 5807 5806 5806 5805 5805 5804 5804 5803 5802 5802 5801 5800 5800 5800 5799 5798 5797 5796 5795 5794 5793 5793 5792 5791 5790 5789 5788 5787 5787 5786 5785 5784
5815 5813 5811 5809 5807 5806 5804 5803 5801 5800 5800 5799 5798 5797 5797 5796 5795 5794 5794 5793 5793 5793 5792 5791 5791 5790 5790 5789 5787 5786 5786 5785 5784 5784 5783 5781 5780 5779 5778 5778 5777 5776 5775